This is the latest recevied weather packets stored in our database for station/object SR2CPA-13. If no packets are shown the sender has not sent any weather packets the latest 10 day(s).
| Time | Temp. | Humidity | Pressure | Rain* | Wind** | Luminosity | Snow |
|---|---|---|---|---|---|---|---|
| 1777843474 | 15° C | 55% | 0 hPa | 0 mm | - | - | - |
| 1777842874 | 15° C | 53% | 0 hPa | 0 mm | - | - | - |
| 1777842254 | 15.56° C | 52% | 0 hPa | 0 mm | - | - | - |
| 1777841654 | 16.11° C | 51% | 0 hPa | 0 mm | - | - | - |
| 1777841034 | 16.67° C | 47% | 0 hPa | 0 mm | - | - | - |
| 1777840434 | 16.67° C | 48% | 0 hPa | 0 mm | - | - | - |
| 1777839814 | 16.67° C | 47% | 0 hPa | 0 mm | - | - | - |
| 1777839214 | 17.22° C | 46% | 0 hPa | 0 mm | - | - | - |
| 1777838614 | 17.78° C | 45% | 0 hPa | 0 mm | - | - | - |
| 1777838014 | 17.78° C | 45% | 0 hPa | 0 mm | - | - | - |
| 1777837414 | 18.33° C | 44% | 0 hPa | 0 mm | - | - | - |
| 1777836794 | 18.89° C | 42% | 0 hPa | 0 mm | - | - | - |
| 1777836194 | 18.89° C | 44% | 0 hPa | 0 mm | - | - | - |
| 1777835594 | 18.89° C | 43% | 0 hPa | 0 mm | - | - | - |
| 1777834994 | 18.89° C | 42% | 0 hPa | 0 mm | - | - | - |
| 1777834374 | 20° C | 42% | 0 hPa | 0 mm | - | - | - |
| 1777833754 | 20° C | 41% | 0 hPa | 0 mm | - | - | - |
| 1777833154 | 20.56° C | 40% | 0 hPa | 0 mm | - | - | - |
| 1777832534 | 20.56° C | 39% | 0 hPa | 0 mm | - | - | - |
| 1777831934 | 21.67° C | 38% | 0 hPa | 0 mm | - | - | - |
| 1777831334 | 22.78° C | 37% | 0 hPa | 0 mm | - | - | - |
| 1777830734 | 22.78° C | 37% | 0 hPa | 0 mm | - | - | - |
| 1777830134 | 22.78° C | 37% | 0 hPa | 0 mm | - | - | - |
| 1777829514 | 23.33° C | 36% | 0 hPa | 0 mm | - | - | - |
| 1777828914 | 23.33° C | 35% | 0 hPa | 0 mm | - | - | - |
* Rain latest hour (hover to see other rain measurements)
** Current wind speed in m/s (hover to see current wind gust speed)